| time (UTC) | temp F | wind direction | speed MPH | gust MPH | rain 1hr in | rain 24hr in | rain mn in | humidity % | barometer mb |
| 20260506135210 | 50 | 143 | 0.0 | 2.0 | 0.00 | 0.14 | 0.14 | 94 | 1017.5 |
| 20260506134707 | 50 | 157 | 1.0 | 3.0 | 0.00 | 0.14 | 0.14 | 95 | 1017.5 |
| 20260506134203 | 50 | 142 | 1.0 | 1.0 | 0.00 | 0.14 | 0.14 | 96 | 1017.4 |
| 20260506133701 | 49 | 140 | 0.0 | 0.0 | 0.00 | 0.14 | 0.14 | 96 | 1017.4 |
| 20260506133157 | 49 | 148 | 0.0 | 2.0 | 0.00 | 0.14 | 0.14 | 96 | 1017.4 |
| 20260506132655 | 48 | 149 | 1.0 | 2.0 | 0.00 | 0.14 | 0.14 | 97 | 1017.2 |
| 20260506132151 | 48 | 152 | 1.0 | 2.0 | 0.00 | 0.14 | 0.14 | 97 | 1016.8 |
| 20260506131649 | 48 | 144 | 0.0 | 1.0 | 0.00 | 0.14 | 0.14 | 97 | 1016.6 |
| 20260506131145 | 47 | 139 | 0.0 | 1.0 | 0.00 | 0.14 | 0.14 | 97 | 1016.9 |
| 20260506130642 | 47 | 137 | 0.0 | 0.0 | 0.00 | 0.14 | 0.14 | 97 | 1017.4 |
| 20260506130139 | 47 | 139 | 0.0 | 1.0 | 0.00 | 0.14 | 0.14 | 98 | 1017.2 |
| 20260506125638 | 47 | 145 | 0.0 | 0.0 | 0.00 | 0.14 | 0.14 | 98 | 1016.9 |
| 20260506125135 | 46 | 133 | 0.0 | 0.0 | 0.00 | 0.14 | 0.14 | 98 | 1016.8 |
| 20260506124633 | 46 | 145 | 1.0 | 2.0 | 0.00 | 0.14 | 0.14 | 98 | 1017.3 |
| 20260506124130 | 46 | 139 | 0.0 | 0.0 | 0.00 | 0.14 | 0.14 | 98 | 1016.8 |
| 20260506123628 | 46 | 138 | 0.0 | 0.0 | 0.00 | 0.14 | 0.14 | 98 | 1016.8 |
| 20260506123126 | 46 | 140 | 0.0 | 0.0 | 0.00 | 0.14 | 0.14 | 98 | 1016.7 |
| 20260506122622 | 46 | 144 | 0.0 | 0.0 | 0.00 | 0.14 | 0.14 | 98 | 1016.8 |
| 20260506122120 | 46 | 138 | 0.0 | 0.0 | 0.00 | 0.14 | 0.14 | 98 | 1016.8 |
| 20260506121618 | 46 | 138 | 0.0 | 0.0 | 0.00 | 0.14 | 0.14 | 98 | 1016.6 |
| 20260506121114 | 46 | 138 | 0.0 | 1.0 | 0.00 | 0.14 | 0.14 | 98 | 1016.9 |
| 20260506120612 | 46 | 139 | 0.0 | 0.0 | 0.00 | 0.14 | 0.14 | 98 | 1016.8 |
| 20260506120109 | 46 | 151 | 0.0 | 0.0 | 0.00 | 0.14 | 0.14 | 98 | 1016.9 |
| 20260506115608 | 45 | 151 | 0.0 | 0.0 | 0.00 | 0.14 | 0.14 | 98 | 1016.5 |
| 20260506115105 | 45 | 151 | 0.0 | 1.0 | 0.00 | 0.14 | 0.14 | 98 | 1016.4 |
| 20260506114602 | 45 | 149 | 0.0 | 0.0 | 0.00 | 0.14 | 0.14 | 98 | 1016.5 |
| 20260506114101 | 45 | 149 | 0.0 | 0.0 | 0.00 | 0.14 | 0.14 | 98 | 1016.7 |
| 20260506113558 | 45 | 149 | 0.0 | 0.0 | 0.00 | 0.14 | 0.14 | 98 | 1015.9 |
| 20260506113055 | 45 | 149 | 0.0 | 0.0 | 0.00 | 0.14 | 0.14 | 98 | 1016.1 |
| 20260506112551 | 45 | 149 | 0.0 | 1.0 | 0.00 | 0.14 | 0.14 | 98 | 1016.0 |
| 20260506112049 | 45 | 149 | 0.0 | 0.0 | 0.00 | 0.14 | 0.14 | 98 | 1016.0 |
| 20260506111547 | 45 | 149 | 0.0 | 0.0 | 0.00 | 0.14 | 0.14 | 98 | 1015.7 |
| 20260506111044 | 45 | 149 | 0.0 | 0.0 | 0.00 | 0.14 | 0.14 | 98 | 1016.0 |
| 20260506110542 | 44 | 149 | 0.0 | 0.0 | 0.00 | 0.14 | 0.14 | 98 | 1015.7 |
| 20260506110039 | 44 | 149 | 0.0 | 0.0 | 0.00 | 0.14 | 0.14 | 98 | 1015.6 |
| 20260506105535 | 44 | 149 | 0.0 | 1.0 | 0.00 | 0.14 | 0.14 | 98 | 1015.5 |
| 20260506105032 | 44 | 149 | 0.0 | 1.0 | 0.07 | 0.14 | 0.14 | 98 | 1015.1 |
| 20260506104530 | 44 | 149 | 0.0 | 0.0 | 0.07 | 0.14 | 0.14 | 98 | 1014.8 |
| 20260506104028 | 44 | 149 | 0.0 | 0.0 | 0.00 | 0.13 | 0.13 | 98 | 1015.1 |
| 20260506103525 | 44 | 149 | 0.0 | 0.0 | 0.00 | 0.13 | 0.13 | 98 | 1015.2 |
| 20260506103021 | 44 | 148 | 0.0 | 0.0 | 0.00 | 0.13 | 0.13 | 98 | 1015.3 |
| 20260506102520 | 44 | 143 | 0.0 | 0.0 | 0.00 | 0.13 | 0.13 | 98 | 1015.1 |
| 20260506102017 | 44 | 150 | 1.0 | 1.0 | 0.00 | 0.13 | 0.13 | 98 | 1015.2 |
| 20260506101513 | 44 | 142 | 0.0 | 0.0 | 0.00 | 0.13 | 0.13 | 98 | 1014.8 |
| 20260506101011 | 44 | 144 | 0.0 | 0.0 | 0.00 | 0.13 | 0.13 | 98 | 1014.8 |
| 20260506100509 | 44 | 144 | 0.0 | 1.0 | 0.00 | 0.13 | 0.13 | 98 | 1014.8 |
| 20260506100007 | 44 | 138 | 0.0 | 0.0 | 0.00 | 0.13 | 0.13 | 98 | 1014.2 |
| 20260506095505 | 44 | 136 | 0.0 | 0.0 | 0.07 | 0.13 | 0.13 | 98 | 1014.6 |
| 20260506095001 | 45 | 143 | 0.0 | 0.0 | 0.07 | 0.13 | 0.13 | 98 | 1015.0 |
| 20260506094459 | 45 | 145 | 0.0 | 0.0 | 0.00 | 0.12 | 0.12 | 98 | 1014.7 |
| 20260506093956 | 45 | 147 | 0.0 | 0.0 | 0.00 | 0.12 | 0.12 | 98 | 1014.8 |
| 20260506093455 | 45 | 142 | 0.0 | 0.0 | 0.00 | 0.12 | 0.12 | 98 | 1014.6 |
| 20260506092952 | 45 | 146 | 0.0 | 0.0 | 0.00 | 0.12 | 0.12 | 98 | 1014.4 |
| 20260506092450 | 45 | 139 | 0.0 | 1.0 | 0.00 | 0.12 | 0.12 | 98 | 1014.2 |
| 20260506091946 | 45 | 141 | 0.0 | 0.0 | 0.00 | 0.12 | 0.12 | 98 | 1014.0 |
| 20260506091444 | 45 | 127 | 1.0 | 1.0 | 0.05 | 0.12 | 0.12 | 98 | 1014.0 |
| 20260506090941 | 45 | 139 | 0.0 | 1.0 | 0.05 | 0.12 | 0.12 | 98 | 1013.9 |
| 20260506090439 | 45 | 134 | 0.0 | 1.0 | 0.00 | 0.11 | 0.11 | 98 | 1013.7 |
| 20260506085935 | 45 | 147 | 0.0 | 1.0 | 0.00 | 0.11 | 0.11 | 98 | 1013.5 |
| 20260506085432 | 45 | 140 | 0.0 | 1.0 | 0.00 | 0.11 | 0.11 | 98 | 1013.5 |
| 20260506084928 | 45 | 148 | 0.0 | 1.0 | 0.00 | 0.11 | 0.11 | 98 | 1013.6 |
| 20260506084426 | 45 | 149 | 0.0 | 1.0 | 0.07 | 0.11 | 0.11 | 98 | 1013.7 |
| 20260506083921 | 45 | 133 | 0.0 | 0.0 | 0.00 | 0.10 | 0.10 | 98 | 1013.6 |
| 20260506083419 | 46 | 137 | 0.0 | 0.0 | 0.00 | 0.10 | 0.10 | 98 | 1014.0 |
| 20260506082916 | 46 | 132 | 0.0 | 2.0 | 0.00 | 0.10 | 0.10 | 98 | 1013.8 |
| 20260506082413 | 46 | 130 | 2.0 | 3.0 | 0.05 | 0.10 | 0.10 | 98 | 1013.7 |
| 20260506081908 | 46 | 139 | 0.0 | 2.0 | 0.05 | 0.10 | 0.10 | 98 | 1013.7 |
| 20260506081408 | 47 | 126 | 2.0 | 3.0 | 0.00 | 0.09 | 0.09 | 98 | 1013.5 |
| 20260506080904 | 47 | 132 | 0.0 | 2.0 | 0.00 | 0.09 | 0.09 | 98 | 1013.4 |
| 20260506080402 | 48 | 153 | 1.0 | 1.0 | 0.00 | 0.09 | 0.09 | 98 | 1013.2 |
| 20260506073345 | 48 | 136 | 0.0 | 1.0 | 0.05 | 0.08 | 0.08 | 98 | 1013.0 |
| 20260506072842 | 48 | 140 | 0.0 | 0.0 | 0.00 | 0.07 | 0.07 | 98 | 1012.9 |
| 20260506072340 | 49 | 144 | 0.0 | 1.0 | 0.07 | 0.07 | 0.07 | 98 | 1012.4 |
| 20260506071837 | 49 | 153 | 0.0 | 0.0 | 0.07 | 0.07 | 0.07 | 98 | 1012.6 |
| 20260506071335 | 49 | 140 | 0.0 | 1.0 | 0.00 | 0.06 | 0.06 | 99 | 1012.7 |
| 20260506070831 | 49 | 142 | 0.0 | 1.0 | 0.00 | 0.06 | 0.06 | 98 | 1012.4 |
| 20260506070328 | 49 | 164 | 1.0 | 1.0 | 0.05 | 0.06 | 0.06 | 98 | 1012.4 |
| 20260506062306 | 50 | 136 | 0.0 | 5.0 | 0.00 | 0.03 | 0.03 | 98 | 1012.1 |
| 20260506061802 | 50 | 134 | 0.0 | 1.0 | 0.07 | 0.03 | 0.03 | 98 | 1012.0 |
| 20260506061259 | 50 | 128 | 1.0 | 2.0 | 0.07 | 0.03 | 0.03 | 98 | 1012.0 |
| 20260506060757 | 50 | 144 | 0.0 | 2.0 | 0.00 | 0.02 | 0.02 | 98 | 1012.4 |
| 20260506060254 | 50 | 141 | 0.0 | 1.0 | 0.00 | 0.02 | 0.02 | 98 | 1012.2 |
| 20260506041057 | 52 | 134 | 0.0 | 1.0 | 0.05 | 0.92 | 0.92 | 98 | 1012.0 |
| 20260506040555 | 52 | 134 | 0.0 | 1.0 | 0.05 | 0.92 | 0.92 | 98 | 1012.0 |
| 20260506040051 | 52 | 134 | 0.0 | 1.0 | 0.05 | 0.92 | 0.92 | 98 | 1012.0 |
| 20260506035548 | 52 | 132 | 0.0 | 1.0 | 0.00 | 0.91 | 0.91 | 98 | 1011.6 |
| 20260506035044 | 52 | 137 | 0.0 | 1.0 | 0.07 | 0.91 | 0.91 | 98 | 1011.2 |
| 20260506034542 | 52 | 126 | 0.0 | 0.0 | 0.07 | 0.91 | 0.91 | 98 | 1011.4 |
| 20260506034038 | 52 | 146 | 0.0 | 0.0 | 0.05 | 0.90 | 0.90 | 98 | 1011.5 |
| 20260506033536 | 52 | 142 | 0.0 | 0.0 | 0.05 | 0.90 | 0.90 | 98 | 1011.4 |
| 20260506033033 | 52 | 146 | 0.0 | 0.0 | 0.07 | 0.89 | 0.89 | 98 | 1011.5 |
| 20260506032530 | 52 | 147 | 0.0 | 0.0 | 0.07 | 0.89 | 0.89 | 98 | 1011.3 |
| 20260506032027 | 52 | 153 | 0.0 | 1.0 | 0.05 | 0.88 | 0.88 | 98 | 1011.5 |
| 20260506031524 | 52 | 153 | 1.0 | 1.0 | 0.05 | 0.88 | 0.88 | 98 | 1011.1 |
| 20260506031021 | 52 | 142 | 0.0 | 1.0 | 0.07 | 0.87 | 0.87 | 98 | 1010.6 |
| 20260506030519 | 52 | 137 | 0.0 | 0.0 | 0.07 | 0.87 | 0.87 | 98 | 1011.8 |
| 20260506030016 | 53 | 138 | 0.0 | 0.0 | 0.00 | 0.86 | 0.86 | 98 | 1011.3 |
| 20260506025513 | 53 | 145 | 0.0 | 2.0 | 0.05 | 0.86 | 0.86 | 98 | 1011.2 |
| 20260506025009 | 53 | 140 | 0.0 | 0.0 | 0.05 | 0.86 | 0.86 | 98 | 1011.2 |
| 20260506024507 | 53 | 161 | 1.0 | 1.0 | 0.07 | 0.85 | 0.85 | 98 | 1011.3 |
| 20260506024002 | 53 | 148 | 0.0 | 2.0 | 0.00 | 0.84 | 0.84 | 98 | 1011.4 |
| 20260506023459 | 53 | 146 | 0.0 | 1.0 | 0.05 | 0.84 | 0.84 | 98 | 1011.1 |
| 20260506022956 | 54 | 132 | 0.0 | 1.0 | 0.00 | 0.83 | 0.83 | 98 | 1011.5 |
| 20260506022454 | 54 | 179 | 1.0 | 2.0 | 0.07 | 0.83 | 0.83 | 98 | 1011.6 |
| 20260506021951 | 54 | 153 | 1.0 | 1.0 | 0.00 | 0.82 | 0.82 | 98 | 1011.6 |
| 20260506021448 | 55 | 196 | 3.0 | 5.0 | 0.07 | 0.82 | 0.82 | 98 | 1011.5 |
| 20260506020945 | 57 | 115 | 1.0 | 1.0 | 0.07 | 0.82 | 0.82 | 98 | 1011.3 |
| 20260506020443 | 59 | 154 | 0.0 | 1.0 | 0.05 | 0.81 | 0.81 | 98 | 1011.2 |
| 20260506015940 | 61 | 145 | 0.0 | 0.0 | 0.07 | 0.80 | 0.80 | 98 | 1011.2 |
| 20260506015438 | 61 | 144 | 0.0 | 0.0 | 0.07 | 0.80 | 0.80 | 98 | 1011.2 |
| 20260506014934 | 61 | 174 | 1.0 | 1.0 | 0.05 | 0.79 | 0.79 | 98 | 1011.2 |
| 20260506014431 | 61 | 147 | 0.0 | 1.0 | 0.07 | 0.78 | 0.78 | 98 | 1010.9 |
| 20260506013927 | 61 | 151 | 0.0 | 1.0 | 0.12 | 0.78 | 0.78 | 98 | 1011.2 |
| 20260506013426 | 61 | 162 | 1.0 | 2.0 | 0.05 | 0.77 | 0.77 | 98 | 1011.1 |
| 20260506012922 | 61 | 267 | 1.0 | 1.0 | 0.07 | 0.76 | 0.76 | 98 | 1010.9 |
| 20260506012418 | 61 | 221 | 0.0 | 2.0 | 0.00 | 0.75 | 0.75 | 98 | 1010.8 |
| 20260506011915 | 60 | 151 | 0.0 | 0.0 | 0.00 | 0.75 | 0.75 | 98 | 1010.9 |
| 20260506011413 | 60 | 153 | 0.0 | 1.0 | 0.00 | 0.75 | 0.75 | 98 | 1010.8 |
| 20260506010909 | 61 | 152 | 0.0 | 1.0 | 0.05 | 0.75 | 0.75 | 98 | 1010.7 |
| 20260506010408 | 61 | 156 | 0.0 | 0.0 | 0.00 | 0.74 | 0.74 | 98 | 1010.5 |
| 20260506005904 | 61 | 143 | 0.0 | 0.0 | 0.00 | 0.74 | 0.74 | 98 | 1010.5 |
| 20260506005402 | 61 | 150 | 0.0 | 0.0 | 0.00 | 0.74 | 0.74 | 98 | 1010.6 |
| 20260506004857 | 61 | 150 | 0.0 | 0.0 | 0.00 | 0.74 | 0.74 | 98 | 1010.7 |
| 20260506004355 | 61 | 149 | 0.0 | 0.0 | 0.00 | 0.74 | 0.74 | 98 | 1010.8 |
| 20260506003851 | 61 | 149 | 0.0 | 0.0 | 0.00 | 0.74 | 0.74 | 97 | 1010.8 |
| 20260506003347 | 61 | 149 | 0.0 | 0.0 | 0.07 | 0.74 | 0.74 | 97 | 1010.7 |
| 20260506002844 | 61 | 149 | 0.0 | 0.0 | 0.07 | 0.74 | 0.74 | 97 | 1010.8 |
| 20260506002340 | 61 | 149 | 0.0 | 0.0 | 0.00 | 0.73 | 0.73 | 97 | 1010.7 |
| 20260506001836 | 61 | 144 | 0.0 | 1.0 | 0.00 | 0.73 | 0.73 | 97 | 1010.8 |
| 20260506001333 | 61 | 153 | 0.0 | 1.0 | 0.05 | 0.73 | 0.73 | 97 | 1010.9 |
| 20260506000830 | 62 | 191 | 2.0 | 2.0 | 0.05 | 0.73 | 0.73 | 97 | 1010.8 |
| 20260506000330 | 62 | 151 | 0.0 | 0.0 | 0.00 | 0.72 | 0.72 | 97 | 1010.8 |
| 20260505235824 | 62 | 153 | 0.0 | 0.0 | 0.00 | 0.72 | 0.72 | 97 | 1010.5 |
| 20260505235322 | 62 | 199 | 0.0 | 0.0 | 0.07 | 0.72 | 0.72 | 97 | 1010.8 |
| 20260505234819 | 62 | 144 | 0.0 | 0.0 | 0.00 | 0.71 | 0.71 | 97 | 1010.6 |
| 20260505234317 | 62 | 144 | 0.0 | 0.0 | 0.00 | 0.71 | 0.71 | 97 | 1010.7 |
| 20260505233813 | 62 | 146 | 0.0 | 0.0 | 0.05 | 0.71 | 0.71 | 97 | 1010.7 |
| 20260505233311 | 62 | 142 | 0.0 | 0.0 | 0.05 | 0.71 | 0.71 | 97 | 1010.8 |
| 20260505232808 | 62 | 142 | 0.0 | 0.0 | 0.07 | 0.70 | 0.70 | 97 | 1010.5 |
| 20260505232306 | 62 | 142 | 0.0 | 0.0 | 0.07 | 0.70 | 0.70 | 97 | 1010.9 |
| 20260505231802 | 62 | 143 | 0.0 | 0.0 | 0.07 | 0.69 | 0.69 | 97 | 1011.2 |
| 20260505231301 | 62 | 142 | 0.0 | 0.0 | 0.05 | 0.68 | 0.68 | 97 | 1011.5 |
| 20260505230758 | 62 | 142 | 0.0 | 0.0 | 0.05 | 0.68 | 0.68 | 97 | 1011.2 |
| 20260505230255 | 62 | 142 | 0.0 | 0.0 | 0.07 | 0.67 | 0.67 | 97 | 1011.4 |
| 20260505225752 | 62 | 143 | 0.0 | 0.0 | 0.05 | 0.66 | 0.66 | 97 | 1011.4 |
| 20260505225249 | 62 | 142 | 0.0 | 0.0 | 0.12 | 0.66 | 0.66 | 97 | 1011.3 |
| 20260505224744 | 62 | 142 | 0.0 | 0.0 | 0.12 | 0.65 | 0.65 | 97 | 1011.4 |
| 20260505224242 | 62 | 141 | 0.0 | 0.0 | 0.12 | 0.64 | 0.64 | 97 | 1011.3 |
| 20260505223739 | 62 | 143 | 0.0 | 0.0 | 0.07 | 0.63 | 0.63 | 96 | 1011.4 |
| 20260505223235 | 62 | 141 | 0.0 | 0.0 | 0.05 | 0.62 | 0.62 | 96 | 1011.4 |
| 20260505222731 | 62 | 147 | 0.0 | 0.0 | 0.07 | 0.61 | 0.61 | 96 | 1011.5 |
| 20260505222227 | 62 | 142 | 0.0 | 0.0 | 0.19 | 0.61 | 0.61 | 96 | 1011.8 |
| 20260505221725 | 62 | 144 | 0.0 | 0.0 | 0.12 | 0.59 | 0.59 | 96 | 1011.7 |
| 20260505221221 | 62 | 146 | 0.0 | 0.0 | 0.12 | 0.58 | 0.58 | 96 | 1011.9 |
| 20260505220718 | 62 | 146 | 0.0 | 0.0 | 0.07 | 0.57 | 0.57 | 96 | 1011.9 |
| 20260505220216 | 62 | 144 | 0.0 | 0.0 | 0.07 | 0.56 | 0.56 | 96 | 1011.9 |
| 20260505215714 | 62 | 144 | 0.0 | 0.0 | 0.07 | 0.56 | 0.56 | 96 | 1011.9 |
| 20260505215212 | 62 | 144 | 0.0 | 0.0 | 0.05 | 0.55 | 0.55 | 96 | 1011.8 |
| 20260505214709 | 62 | 144 | 0.0 | 0.0 | 0.05 | 0.55 | 0.55 | 96 | 1011.7 |
| 20260505214206 | 62 | 144 | 0.0 | 0.0 | 0.07 | 0.54 | 0.54 | 96 | 1011.5 |
| 20260505213704 | 62 | 145 | 0.0 | 0.0 | 0.07 | 0.54 | 0.54 | 96 | 1011.3 |
| 20260505213201 | 62 | 146 | 0.0 | 0.0 | 0.00 | 0.53 | 0.53 | 96 | 1011.2 |
| 20260505212656 | 62 | 145 | 0.0 | 0.0 | 0.05 | 0.53 | 0.53 | 96 | 1011.4 |
| 20260505212154 | 62 | 146 | 0.0 | 0.0 | 0.05 | 0.53 | 0.53 | 96 | 1011.4 |
| 20260505211651 | 62 | 147 | 0.0 | 0.0 | 0.00 | 0.52 | 0.52 | 95 | 1011.6 |
| 20260505211148 | 62 | 147 | 0.0 | 0.0 | 0.00 | 0.52 | 0.52 | 95 | 1011.9 |
| 20260505210645 | 62 | 146 | 0.0 | 0.0 | 0.07 | 0.52 | 0.52 | 95 | 1011.7 |
| 20260505210141 | 62 | 146 | 0.0 | 0.0 | 0.00 | 0.51 | 0.51 | 95 | 1011.8 |
| 20260505205639 | 62 | 145 | 0.0 | 0.0 | 0.00 | 0.51 | 0.51 | 95 | 1011.8 |
| 20260505205137 | 62 | 145 | 0.0 | 1.0 | 0.05 | 0.51 | 0.51 | 95 | 1012.1 |
| 20260505204633 | 62 | 145 | 0.0 | 0.0 | 0.00 | 0.50 | 0.50 | 95 | 1012.3 |
| 20260505204132 | 62 | 145 | 0.0 | 0.0 | 0.07 | 0.50 | 0.50 | 95 | 1012.3 |
| 20260505203628 | 62 | 145 | 0.0 | 0.0 | 0.05 | 0.49 | 0.49 | 95 | 1012.4 |
| 20260505203125 | 62 | 150 | 0.0 | 0.0 | 0.12 | 0.49 | 0.49 | 95 | 1012.4 |
| 20260505202621 | 61 | 149 | 0.0 | 0.0 | 0.12 | 0.48 | 0.48 | 95 | 1012.5 |
| 20260505202117 | 61 | 151 | 0.0 | 1.0 | 0.19 | 0.47 | 0.47 | 94 | 1012.6 |
| 20260505201613 | 61 | 142 | 0.0 | 0.0 | 0.12 | 0.45 | 0.45 | 94 | 1012.6 |
| 20260505201111 | 61 | 151 | 0.0 | 0.0 | 0.12 | 0.44 | 0.44 | 94 | 1012.5 |
| 20260505200609 | 61 | 149 | 0.0 | 1.0 | 0.19 | 0.43 | 0.43 | 94 | 1012.7 |
| 20260505200106 | 61 | 145 | 0.0 | 0.0 | 0.19 | 0.41 | 0.41 | 94 | 1012.8 |
| 20260505195602 | 61 | 147 | 0.0 | 0.0 | 0.24 | 0.40 | 0.40 | 94 | 1012.9 |
| 20260505195100 | 61 | 151 | 0.0 | 1.0 | 0.24 | 0.38 | 0.38 | 93 | 1012.8 |
| 20260505194556 | 61 | 147 | 0.0 | 0.0 | 0.26 | 0.35 | 0.35 | 93 | 1012.8 |
| 20260505194052 | 61 | 155 | 0.0 | 2.0 | 0.19 | 0.33 | 0.33 | 93 | 1013.1 |
| 20260505193549 | 61 | 149 | 0.0 | 2.0 | 0.17 | 0.31 | 0.31 | 93 | 1012.9 |
| 20260505193046 | 61 | 158 | 1.0 | 1.0 | 0.12 | 0.29 | 0.29 | 93 | 1013.2 |
| 20260505192545 | 61 | 151 | 0.0 | 2.0 | 0.19 | 0.28 | 0.28 | 92 | 1013.1 |
| 20260505192042 | 61 | 141 | 0.0 | 0.0 | 0.24 | 0.27 | 0.27 | 92 | 1013.3 |
| 20260505191540 | 62 | 148 | 0.0 | 1.0 | 0.17 | 0.25 | 0.25 | 92 | 1013.4 |
| 20260505191038 | 62 | 148 | 0.0 | 0.0 | 0.12 | 0.23 | 0.23 | 92 | 1013.4 |
| 20260505190532 | 62 | 150 | 0.0 | 0.0 | 0.12 | 0.22 | 0.22 | 91 | 1013.4 |
| 20260505190029 | 62 | 150 | 0.0 | 1.0 | 0.12 | 0.21 | 0.21 | 91 | 1013.6 |
| 20260505185525 | 62 | 149 | 0.0 | 0.0 | 0.07 | 0.20 | 0.20 | 91 | 1013.6 |
| 20260505185022 | 62 | 151 | 1.0 | 1.0 | 0.07 | 0.19 | 0.19 | 90 | 1013.5 |
| 20260505184519 | 62 | 146 | 0.0 | 0.0 | 0.12 | 0.19 | 0.19 | 90 | 1013.3 |
| 20260505184016 | 61 | 139 | 0.0 | 1.0 | 0.12 | 0.18 | 0.18 | 90 | 1013.6 |
| 20260505183512 | 62 | 152 | 0.0 | 1.0 | 0.07 | 0.17 | 0.17 | 89 | 1013.4 |
| 20260505183009 | 62 | 143 | 0.0 | 0.0 | 0.12 | 0.16 | 0.16 | 89 | 1013.5 |
| 20260505182506 | 61 | 147 | 0.0 | 0.0 | 0.12 | 0.16 | 0.16 | 88 | 1013.7 |
| 20260505182002 | 61 | 148 | 1.0 | 1.0 | 0.05 | 0.14 | 0.14 | 87 | 1013.6 |
| 20260505181459 | 61 | 151 | 0.0 | 0.0 | 0.17 | 0.14 | 0.14 | 87 | 1013.7 |
| 20260505180956 | 61 | 150 | 1.0 | 1.0 | 0.24 | 0.13 | 0.13 | 86 | 1013.9 |
| 20260505180452 | 62 | 151 | 1.0 | 1.0 | 0.31 | 0.11 | 0.11 | 85 | 1013.7 |
| 20260505175949 | 62 | 146 | 0.0 | 0.0 | 0.31 | 0.09 | 0.09 | 85 | 1013.9 |
| 20260505175445 | 62 | 175 | 3.0 | 6.0 | 0.31 | 0.06 | 0.06 | 83 | 1014.0 |
| 20260505174941 | 63 | 359 | 4.0 | 5.0 | 0.17 | 0.03 | 0.03 | 82 | 1014.2 |
| 20260505174434 | 64 | 145 | 2.0 | 3.0 | 0.05 | 0.01 | 0.01 | 80 | 1014.1 |
| 20260505173930 | 65 | 196 | 2.0 | 3.0 | 0.00 | 0.00 | 0.00 | 79 | 1014.2 |
| 20260505173426 | 66 | 155 | 0.0 | 0.0 | 0.00 | 0.00 | 0.00 | 77 | 1013.4 |
| 20260505172923 | 66 | 146 | 0.0 | 0.0 | 0.00 | 0.00 | 0.00 | 76 | 1013.7 |
| 20260505172422 | 66 | 151 | 0.0 | 1.0 | 0.00 | 0.00 | 0.00 | 75 | 1013.5 |
| 20260505171920 | 67 | 151 | 0.0 | 1.0 | 0.00 | 0.00 | 0.00 | 74 | 1013.5 |
| 20260505171417 | 67 | 165 | 1.0 | 1.0 | 0.00 | 0.00 | 0.00 | 74 | 1013.8 |
| 20260505170914 | 67 | 148 | 1.0 | 2.0 | 0.00 | 0.00 | 0.00 | 73 | 1013.6 |
| 20260505170411 | 67 | 170 | 0.0 | 2.0 | 0.00 | 0.00 | 0.00 | 73 | 1013.6 |
| 20260505165906 | 67 | 172 | 1.0 | 1.0 | 0.00 | 0.00 | 0.00 | 74 | 1013.6 |
| 20260505165403 | 67 | 154 | 0.0 | 1.0 | 0.00 | 0.00 | 0.00 | 74 | 1013.6 |
| 20260505164858 | 66 | 150 | 0.0 | 2.0 | 0.00 | 0.00 | 0.00 | 74 | 1013.5 |
| 20260505164355 | 66 | 157 | 0.0 | 2.0 | 0.00 | 0.00 | 0.00 | 74 | 1013.8 |
| 20260505163853 | 66 | 151 | 0.0 | 1.0 | 0.00 | 0.00 | 0.00 | 74 | 1013.7 |
| 20260505163352 | 66 | 147 | 1.0 | 1.0 | 0.00 | 0.00 | 0.00 | 74 | 1013.7 |
| 20260505162850 | 66 | 161 | 0.0 | 2.0 | 0.00 | 0.00 | 0.00 | 74 | 1013.9 |
| 20260505162346 | 66 | 145 | 1.0 | 2.0 | 0.00 | 0.00 | 0.00 | 74 | 1013.8 |
| 20260505161843 | 66 | 155 | 1.0 | 2.0 | 0.00 | 0.00 | 0.00 | 74 | 1013.9 |
| 20260505161340 | 66 | 154 | 1.0 | 3.0 | 0.00 | 0.00 | 0.00 | 74 | 1013.8 |
| 20260505160837 | 66 | 154 | 1.0 | 3.0 | 0.00 | 0.00 | 0.00 | 75 | 1013.7 |
| 20260505160335 | 66 | 150 | 1.0 | 2.0 | 0.00 | 0.00 | 0.00 | 75 | 1013.7 |
| 20260505153313 | 64 | 145 | 0.0 | 0.0 | 0.00 | 0.00 | 0.00 | 77 | 1013.7 |
| 20260505152811 | 64 | 169 | 0.0 | 2.0 | 0.00 | 0.00 | 0.00 | 78 | 1013.7 |
| 20260505152307 | 64 | 155 | 0.0 | 2.0 | 0.00 | 0.00 | 0.00 | 79 | 1013.9 |
| 20260505151802 | 64 | 190 | 2.0 | 6.0 | 0.00 | 0.00 | 0.00 | 79 | 1013.8 |
| 20260505151259 | 64 | 172 | 3.0 | 5.0 | 0.00 | 0.00 | 0.00 | 80 | 1013.6 |
| 20260505150756 | 64 | 145 | 0.0 | 2.0 | 0.00 | 0.00 | 0.00 | 81 | 1013.8 |
| 20260505150253 | 64 | 151 | 0.0 | 2.0 | 0.00 | 0.00 | 0.00 | 82 | 1013.5 |
| 20260505140217 | 62 | 168 | 1.0 | 1.0 | 0.00 | 0.00 | 0.00 | 92 | 1013.4 |